Time,TemperatureF,DewpointF,PressureIn,WindDirection,WindDirectionDegrees,WindSpeedMPH,WindSpeedGustMPH,Humidity,HourlyPrecipIn,Conditions,Clouds,dailyrainin,SoftwareType,DateUTC
2013-02-13 00:04:00,22.9,20.0,30.09,ESE,104,2.1,2.1,90,0.00,,,0.00,TxWx,2013-02-13 06:04:00,
2013-02-13 00:09:00,22.7,20.0,30.09,East,99,2.4,2.4,90,0.00,,,0.00,TxWx,2013-02-13 06:09:00,
2013-02-13 00:14:00,22.6,20.0,30.09,East,94,2.1,2.1,90,0.00,,,0.00,TxWx,2013-02-13 06:14:00,
2013-02-13 00:19:00,23.0,20.0,30.09,ESE,109,4.5,4.5,91,0.00,,,0.00,TxWx,2013-02-13 06:19:00,
2013-02-13 00:24:00,23.2,20.0,30.08,ESE,104,2.1,2.4,91,0.00,,,0.00,TxWx,2013-02-13 06:24:00,
2013-02-13 00:29:00,23.2,20.0,30.08,East,101,2.4,2.7,91,0.00,,,0.00,TxWx,2013-02-13 06:29:00,
2013-02-13 00:35:00,23.7,21.0,30.08,ESE,108,2.4,2.4,91,0.00,,,0.00,TxWx,2013-02-13 06:35:00,
2013-02-13 00:40:00,23.9,21.0,30.07,ESE,102,4.5,4.5,91,0.00,,,0.00,TxWx,2013-02-13 06:40:00,
2013-02-13 00:45:00,24.2,21.0,30.07,East,100,3.3,3.3,91,0.00,,,0.00,TxWx,2013-02-13 06:45:00,
2013-02-13 00:51:00,23.9,20.0,30.07,East,87,2.1,2.4,90,0.00,,,0.00,TxWx,2013-02-13 06:51:00,
2013-02-13 00:56:00,23.8,20.0,30.07,ESE,106,1.8,1.8,90,0.00,,,0.00,TxWx,2013-02-13 06:56:00,
2013-02-13 01:01:00,23.6,20.0,30.07,East,88,1.2,1.5,90,0.00,,,0.00,TxWx,2013-02-13 07:01:00,
2013-02-13 01:06:00,23.4,19.0,30.06,East,93,0.6,0.6,90,0.00,,,0.00,TxWx,2013-02-13 07:06:00,
2013-02-13 01:11:00,23.3,19.0,30.06,East,90,0.6,0.6,90,0.00,,,0.00,TxWx,2013-02-13 07:11:00,
2013-02-13 01:17:00,23.3,19.0,30.06,East,98,2.4,2.4,90,0.00,,,0.00,TxWx,2013-02-13 07:17:00,
2013-02-13 01:22:00,23.2,20.0,30.06,East,99,1.5,1.5,90,0.00,,,0.00,TxWx,2013-02-13 07:22:00,
2013-02-13 01:27:00,23.4,20.0,30.06,East,101,3.0,3.3,90,0.00,,,0.00,TxWx,2013-02-13 07:27:00,
2013-02-13 01:32:00,23.3,20.0,30.06,East,90,2.1,2.1,90,0.00,,,0.00,TxWx,2013-02-13 07:32:00,
2013-02-13 01:38:00,23.5,20.0,30.06,ESE,104,3.0,3.0,90,0.00,,,0.00,TxWx,2013-02-13 07:38:00,
2013-02-13 01:43:00,23.6,21.0,30.06,ESE,103,2.4,2.4,91,0.00,,,0.00,TxWx,2013-02-13 07:43:00,
2013-02-13 01:48:00,23.6,20.0,30.06,ESE,102,2.7,3.6,90,0.00,,,0.00,TxWx,2013-02-13 07:48:00,
2013-02-13 01:53:00,23.7,21.0,30.06,ESE,102,3.3,3.3,91,0.00,,,0.00,TxWx,2013-02-13 07:53:00,
2013-02-13 01:59:00,24.1,21.0,30.06,East,98,3.9,3.9,91,0.00,,,0.00,TxWx,2013-02-13 07:59:00,
2013-02-13 02:04:00,24.3,21.0,30.05,ESE,102,4.8,5.4,91,0.00,,,0.00,TxWx,2013-02-13 08:04:00,
2013-02-13 02:09:00,24.4,21.0,30.05,ESE,108,5.1,5.1,91,0.00,,,0.00,TxWx,2013-02-13 08:09:00,
2013-02-13 02:14:00,24.6,21.0,30.05,ESE,103,7.2,8.1,90,0.00,,,0.00,TxWx,2013-02-13 08:14:00,
2013-02-13 02:20:00,24.8,21.0,30.05,East,101,7.8,8.1,90,0.00,,,0.00,TxWx,2013-02-13 08:20:00,
2013-02-13 02:25:00,24.8,21.0,30.05,ESE,104,7.8,7.8,90,0.00,,,0.00,TxWx,2013-02-13 08:25:00,
2013-02-13 02:30:00,24.7,21.0,30.05,ESE,109,7.2,7.2,89,0.00,,,0.00,TxWx,2013-02-13 08:30:00,
2013-02-13 02:35:00,24.6,21.0,30.05,ESE,104,6.0,6.0,89,0.00,,,0.00,TxWx,2013-02-13 08:35:00,
2013-02-13 02:40:00,24.7,21.0,30.05,East,100,5.1,5.7,89,0.00,,,0.00,TxWx,2013-02-13 08:40:00,
2013-02-13 02:45:00,24.6,21.0,30.04,ESE,104,5.4,5.4,89,0.00,,,0.00,TxWx,2013-02-13 08:45:00,
2013-02-13 02:50:00,24.5,20.0,30.04,ESE,108,3.3,3.6,89,0.00,,,0.00,TxWx,2013-02-13 08:50:00,
2013-02-13 02:56:00,24.4,20.0,30.04,ESE,107,6.6,6.6,89,0.00,,,0.00,TxWx,2013-02-13 08:56:00,
2013-02-13 03:01:00,24.5,20.0,30.04,ESE,106,5.1,5.4,89,0.00,,,0.00,TxWx,2013-02-13 09:01:00,
2013-02-13 03:06:00,24.4,20.0,30.03,ESE,104,3.3,3.6,89,0.00,,,0.00,TxWx,2013-02-13 09:06:00,
2013-02-13 03:11:00,24.5,21.0,30.03,ESE,106,6.0,6.0,89,0.00,,,0.00,TxWx,2013-02-13 09:11:00,
2013-02-13 03:16:00,24.6,21.0,30.03,ESE,106,5.4,6.0,90,0.00,,,0.00,TxWx,2013-02-13 09:16:00,
2013-02-13 03:21:00,24.5,20.0,30.03,East,95,2.4,2.4,90,0.00,,,0.00,TxWx,2013-02-13 09:21:00,
2013-02-13 03:26:00,24.4,20.0,30.02,East,100,1.8,1.8,90,0.00,,,0.00,TxWx,2013-02-13 09:26:00,
2013-02-13 03:31:00,24.3,20.0,30.02,East,101,2.4,2.7,90,0.00,,,0.00,TxWx,2013-02-13 09:31:00,
2013-02-13 03:36:00,24.2,20.0,30.02,East,101,1.8,2.1,90,0.00,,,0.00,TxWx,2013-02-13 09:36:00,
2013-02-13 03:42:00,24.1,20.0,30.02,East,91,3.3,3.3,90,0.00,,,0.00,TxWx,2013-02-13 09:42:00,
2013-02-13 03:47:00,24.0,20.0,30.02,East,94,2.1,2.7,90,0.00,,,0.00,TxWx,2013-02-13 09:47:00,
2013-02-13 03:52:00,23.9,20.0,30.02,ESE,103,3.0,3.3,90,0.00,,,0.00,TxWx,2013-02-13 09:52:00,
2013-02-13 03:58:00,23.8,20.0,30.02,East,101,1.8,2.1,90,0.00,,,0.00,TxWx,2013-02-13 09:58:00,
2013-02-13 04:03:00,23.5,20.0,30.01,East,92,3.0,3.0,90,0.00,,,0.00,TxWx,2013-02-13 10:03:00,
2013-02-13 04:08:00,23.6,21.0,30.01,ESE,102,2.1,2.1,91,0.00,,,0.00,TxWx,2013-02-13 10:08:00,
2013-02-13 04:13:00,23.9,21.0,30.01,ESE,105,4.5,4.8,91,0.00,,,0.00,TxWx,2013-02-13 10:13:00,
2013-02-13 04:18:00,24.2,21.0,30.01,ESE,103,5.1,5.4,91,0.00,,,0.00,TxWx,2013-02-13 10:18:00,
2013-02-13 04:24:00,24.3,21.0,30.01,ESE,106,5.7,6.3,91,0.00,,,0.00,TxWx,2013-02-13 10:24:00,
2013-02-13 04:29:00,24.4,21.0,30.00,East,101,2.7,2.7,91,0.00,,,0.00,TxWx,2013-02-13 10:29:00,
2013-02-13 04:34:00,24.5,22.0,30.00,ESE,102,5.1,6.0,91,0.00,,,0.00,TxWx,2013-02-13 10:34:00,
2013-02-13 04:39:00,24.7,22.0,30.00,ESE,107,6.9,6.9,91,0.00,,,0.00,TxWx,2013-02-13 10:39:00,
2013-02-13 04:44:00,24.5,22.0,30.00,ESE,109,5.1,5.7,91,0.00,,,0.00,TxWx,2013-02-13 10:44:00,
2013-02-13 04:49:00,24.4,21.0,30.00,East,99,2.7,2.7,91,0.00,,,0.00,TxWx,2013-02-13 10:49:00,
2013-02-13 04:54:00,24.2,21.0,29.99,ESE,102,4.5,4.8,91,0.00,,,0.00,TxWx,2013-02-13 10:54:00,
2013-02-13 05:00:00,24.3,21.0,29.99,ESE,104,3.6,4.2,92,0.00,,,0.00,TxWx,2013-02-13 11:00:00,
2013-02-13 05:05:00,24.2,21.0,29.99,East,93,3.3,3.6,92,0.00,,,0.00,TxWx,2013-02-13 11:05:00,
2013-02-13 05:10:00,24.2,21.0,29.99,East,96,3.6,3.9,92,0.00,,,0.00,TxWx,2013-02-13 11:10:00,
2013-02-13 05:15:00,24.2,21.0,29.99,East,101,4.2,4.5,92,0.00,,,0.00,TxWx,2013-02-13 11:15:00,
2013-02-13 05:20:00,24.4,21.0,29.98,ESE,110,6.6,6.9,92,0.00,,,0.00,TxWx,2013-02-13 11:20:00,
2013-02-13 05:25:00,24.3,21.0,29.98,ESE,102,7.5,7.5,92,0.00,,,0.00,TxWx,2013-02-13 11:25:00,
2013-02-13 05:30:00,24.5,21.0,29.98,ESE,107,7.5,8.4,92,0.00,,,0.00,TxWx,2013-02-13 11:30:00,
2013-02-13 05:36:00,24.5,22.0,29.98,ESE,104,7.8,7.8,92,0.00,,,0.00,TxWx,2013-02-13 11:36:00,
2013-02-13 05:41:00,24.5,22.0,29.98,East,93,7.8,7.8,92,0.00,,,0.00,TxWx,2013-02-13 11:41:00,
2013-02-13 05:46:00,24.4,21.0,29.97,East,97,4.8,4.8,92,0.00,,,0.00,TxWx,2013-02-13 11:46:00,
2013-02-13 05:51:00,24.5,22.0,29.97,East,99,5.4,5.4,92,0.00,,,0.00,TxWx,2013-02-13 11:51:00,
2013-02-13 05:56:00,24.4,21.0,29.97,ESE,106,4.8,5.1,92,0.00,,,0.00,TxWx,2013-02-13 11:56:00,
2013-02-13 06:01:00,24.3,21.0,29.97,ESE,104,6.0,6.0,92,0.00,,,0.00,TxWx,2013-02-13 12:01:00,
2013-02-13 06:06:00,24.4,21.0,29.97,ESE,107,4.5,4.8,92,0.00,,,0.00,TxWx,2013-02-13 12:06:00,
2013-02-13 06:12:00,24.4,21.0,29.97,East,87,3.6,3.6,93,0.00,,,0.00,TxWx,2013-02-13 12:12:00,
2013-02-13 06:17:00,24.3,21.0,29.97,ESE,102,3.6,3.9,93,0.00,,,0.00,TxWx,2013-02-13 12:17:00,
2013-02-13 06:22:00,24.4,21.0,29.96,ESE,105,3.9,3.9,93,0.00,,,0.00,TxWx,2013-02-13 12:22:00,
2013-02-13 06:27:00,24.4,21.0,29.96,ESE,105,3.9,3.9,93,0.00,,,0.00,TxWx,2013-02-13 12:27:00,
2013-02-13 06:33:00,24.4,21.0,29.96,ESE,109,7.5,8.7,93,0.00,,,0.00,TxWx,2013-02-13 12:33:00,
2013-02-13 06:38:00,24.5,21.0,29.96,ESE,105,7.2,8.4,93,0.00,,,0.00,TxWx,2013-02-13 12:38:00,
2013-02-13 06:43:00,24.5,22.0,29.96,ESE,108,6.3,6.9,93,0.00,,,0.00,TxWx,2013-02-13 12:43:00,
2013-02-13 06:48:00,24.7,22.0,29.96,ESE,107,5.4,6.0,93,0.00,,,0.00,TxWx,2013-02-13 12:48:00,
2013-02-13 06:53:00,24.8,22.0,29.96,ESE,111,5.1,5.1,93,0.00,,,0.00,TxWx,2013-02-13 12:53:00,
2013-02-13 06:58:00,24.9,22.0,29.96,ESE,117,6.9,7.5,93,0.00,,,0.00,TxWx,2013-02-13 12:58:00,
2013-02-13 07:03:00,25.0,22.0,29.96,ESE,112,11.4,11.4,93,0.00,,,0.00,TxWx,2013-02-13 13:03:00,
2013-02-13 07:09:00,24.9,22.0,29.96,ESE,105,9.0,9.0,93,0.00,,,0.00,TxWx,2013-02-13 13:09:00,
2013-02-13 07:14:00,25.1,22.0,29.96,ESE,111,8.4,8.4,93,0.00,,,0.00,TxWx,2013-02-13 13:14:00,
2013-02-13 07:19:00,25.2,22.0,29.96,ESE,110,8.4,8.7,93,0.00,,,0.00,TxWx,2013-02-13 13:19:00,
2013-02-13 07:24:00,25.3,22.0,29.97,ESE,112,7.5,7.5,93,0.00,,,0.00,TxWx,2013-02-13 13:24:00,
2013-02-13 07:30:00,25.6,23.0,29.97,ESE,114,8.4,8.4,93,0.00,,,0.00,TxWx,2013-02-13 13:30:00,
2013-02-13 07:35:00,25.8,23.0,29.97,ESE,107,4.8,4.8,93,0.00,,,0.00,TxWx,2013-02-13 13:35:00,
2013-02-13 07:40:00,26.0,23.0,29.97,ESE,109,7.8,7.8,93,0.00,,,0.00,TxWx,2013-02-13 13:40:00,
2013-02-13 07:45:00,26.2,23.0,29.97,ESE,120,9.0,9.3,92,0.00,,,0.00,TxWx,2013-02-13 13:45:00,
2013-02-13 07:50:00,26.3,23.0,29.96,ESE,118,9.9,10.5,92,0.00,,,0.00,TxWx,2013-02-13 13:50:00,
2013-02-13 07:55:00,26.7,24.0,29.96,ESE,112,7.8,7.8,92,0.00,,,0.00,TxWx,2013-02-13 13:55:00,
2013-02-13 08:00:00,26.8,24.0,29.96,ESE,121,12.9,12.9,92,0.00,,,0.00,TxWx,2013-02-13 14:00:00,
2013-02-13 08:05:00,27.0,24.0,29.96,ESE,110,8.7,10.5,92,0.00,,,0.00,TxWx,2013-02-13 14:05:00,
2013-02-13 08:10:00,27.5,24.0,29.96,ESE,114,9.0,10.2,91,0.00,,,0.00,TxWx,2013-02-13 14:10:00,
2013-02-13 08:16:00,27.9,25.0,29.96,SE,131,5.7,5.7,91,0.00,,,0.00,TxWx,2013-02-13 14:16:00,
2013-02-13 08:21:00,28.2,25.0,29.96,ESE,118,9.9,9.9,91,0.00,,,0.00,TxWx,2013-02-13 14:21:00,
2013-02-13 08:26:00,28.4,25.0,29.96,ESE,115,7.5,7.5,91,0.00,,,0.00,TxWx,2013-02-13 14:26:00,
2013-02-13 08:31:00,28.8,25.0,29.97,ESE,118,9.9,10.2,90,0.00,,,0.00,TxWx,2013-02-13 14:31:00,
2013-02-13 08:37:00,29.1,25.0,29.97,ESE,115,11.7,11.7,90,0.00,,,0.00,TxWx,2013-02-13 14:37:00,
2013-02-13 08:42:00,29.6,26.0,29.97,ESE,117,4.5,5.1,90,0.00,,,0.00,TxWx,2013-02-13 14:42:00,
2013-02-13 08:47:00,30.0,26.0,29.97,ESE,115,11.1,11.4,89,0.00,,,0.00,TxWx,2013-02-13 14:47:00,
2013-02-13 08:52:00,30.3,26.0,29.97,ESE,118,6.3,6.9,89,0.00,,,0.00,TxWx,2013-02-13 14:52:00,
2013-02-13 08:57:00,30.6,27.0,29.97,ESE,106,6.6,6.6,88,0.00,,,0.00,TxWx,2013-02-13 14:57:00,
2013-02-13 09:03:00,31.1,27.0,29.97,ESE,105,5.7,6.3,88,0.00,,,0.00,TxWx,2013-02-13 15:03:00,
2013-02-13 09:08:00,31.3,27.0,29.97,ESE,111,10.5,10.5,87,0.00,,,0.00,TxWx,2013-02-13 15:08:00,
2013-02-13 09:13:00,32.0,27.0,29.97,ESE,114,6.0,6.9,87,0.00,,,0.00,TxWx,2013-02-13 15:13:00,
2013-02-13 09:18:00,32.3,27.0,29.96,ESE,118,9.3,9.3,86,0.00,,,0.00,TxWx,2013-02-13 15:18:00,
2013-02-13 09:23:00,32.7,28.0,29.96,ESE,119,6.0,6.0,85,0.00,,,0.00,TxWx,2013-02-13 15:23:00,
2013-02-13 09:28:00,32.9,28.0,29.96,ESE,115,10.2,11.1,84,0.00,,,0.00,TxWx,2013-02-13 15:28:00,
2013-02-13 09:34:00,33.4,27.0,29.96,ESE,107,7.8,9.3,83,0.00,,,0.00,TxWx,2013-02-13 15:34:00,
2013-02-13 09:39:00,33.9,28.0,29.96,ESE,119,9.6,10.8,83,0.00,,,0.00,TxWx,2013-02-13 15:39:00,
2013-02-13 09:44:00,33.9,28.0,29.96,ESE,120,11.4,12.6,82,0.00,,,0.00,TxWx,2013-02-13 15:44:00,
2013-02-13 09:49:00,34.8,29.0,29.96,SE,134,5.1,5.1,81,0.00,,,0.00,TxWx,2013-02-13 15:49:00,
2013-02-13 09:54:00,34.9,28.0,29.96,SE,127,10.5,12.3,80,0.00,,,0.00,TxWx,2013-02-13 15:54:00,
2013-02-13 10:00:00,35.2,28.0,29.96,ESE,110,9.9,9.9,79,0.00,,,0.00,TxWx,2013-02-13 16:00:00,
2013-02-13 10:05:00,35.2,28.0,29.96,ESE,113,13.5,14.1,78,0.00,,,0.00,TxWx,2013-02-13 16:05:00,
2013-02-13 10:10:00,35.6,28.0,29.96,ESE,120,15.9,15.9,77,0.00,,,0.00,TxWx,2013-02-13 16:10:00,
2013-02-13 10:15:00,35.8,28.0,29.96,SE,130,8.4,10.2,77,0.00,,,0.00,TxWx,2013-02-13 16:15:00,
2013-02-13 10:20:00,35.7,28.0,29.95,ESE,116,10.8,11.1,76,0.00,,,0.00,TxWx,2013-02-13 16:20:00,
2013-02-13 10:26:00,36.1,28.0,29.96,ESE,122,16.8,17.7,76,0.00,,,0.00,TxWx,2013-02-13 16:26:00,
2013-02-13 10:31:00,36.5,28.0,29.95,ESE,117,10.2,12.3,75,0.00,,,0.00,TxWx,2013-02-13 16:31:00,
2013-02-13 10:36:00,36.6,29.0,29.95,ESE,117,14.7,15.3,75,0.00,,,0.00,TxWx,2013-02-13 16:36:00,
2013-02-13 10:41:00,37.4,29.0,29.95,SE,126,7.5,9.3,75,0.00,,,0.00,TxWx,2013-02-13 16:41:00,
2013-02-13 10:46:00,37.4,28.0,29.95,SE,131,11.4,11.4,74,0.00,,,0.00,TxWx,2013-02-13 16:46:00,
2013-02-13 10:52:00,37.7,29.0,29.95,SE,127,11.1,12.3,74,0.00,,,0.00,TxWx,2013-02-13 16:52:00,
2013-02-13 10:57:00,38.3,29.0,29.95,ESE,104,10.2,11.4,73,0.00,,,0.00,TxWx,2013-02-13 16:57:00,
2013-02-13 11:02:00,38.1,29.0,29.95,ESE,119,11.4,11.4,72,0.00,,,0.00,TxWx,2013-02-13 17:02:00,
2013-02-13 11:07:00,38.9,30.0,29.95,SE,137,14.1,14.1,72,0.00,,,0.00,TxWx,2013-02-13 17:07:00,
2013-02-13 11:12:00,38.9,29.0,29.95,SE,131,11.4,11.4,71,0.00,,,0.00,TxWx,2013-02-13 17:12:00,
2013-02-13 11:18:00,39.2,29.0,29.95,SE,137,12.9,14.4,71,0.00,,,0.00,TxWx,2013-02-13 17:18:00,
2013-02-13 11:23:00,39.6,30.0,29.94,SE,125,10.8,11.4,70,0.00,,,0.00,TxWx,2013-02-13 17:23:00,
2013-02-13 11:28:00,39.2,29.0,29.94,SE,125,19.2,19.2,69,0.00,,,0.00,TxWx,2013-02-13 17:28:00,
2013-02-13 11:33:00,39.5,29.0,29.94,ESE,121,16.8,18.3,68,0.00,,,0.00,TxWx,2013-02-13 17:33:00,
2013-02-13 11:38:00,39.8,29.0,29.93,SE,132,17.1,17.1,67,0.00,,,0.00,TxWx,2013-02-13 17:38:00,
2013-02-13 11:43:00,40.1,29.0,29.93,ESE,114,17.1,18.3,66,0.00,,,0.00,TxWx,2013-02-13 17:43:00,
2013-02-13 11:49:00,40.2,28.0,29.93,ESE,120,9.6,10.2,65,0.00,,,0.00,TxWx,2013-02-13 17:49:00,
2013-02-13 11:54:00,40.6,29.0,29.92,ESE,111,14.1,14.4,65,0.00,,,0.00,TxWx,2013-02-13 17:54:00,
2013-02-13 11:59:00,40.6,29.0,29.92,ESE,112,16.2,19.5,65,0.00,,,0.00,TxWx,2013-02-13 17:59:00,
2013-02-13 12:05:00,40.7,29.0,29.92,ESE,116,15.3,15.3,65,0.00,,,0.00,TxWx,2013-02-13 18:05:00,
2013-02-13 12:10:00,41.5,30.0,29.91,SE,131,8.4,8.4,65,0.00,,,0.00,TxWx,2013-02-13 18:10:00,
2013-02-13 12:15:00,42.0,29.0,29.91,ESE,123,14.4,15.9,64,0.00,,,0.00,TxWx,2013-02-13 18:15:00,
2013-02-13 12:20:00,42.1,29.0,29.91,SE,144,7.2,7.8,63,0.00,,,0.00,TxWx,2013-02-13 18:20:00,
2013-02-13 12:25:00,42.3,29.0,29.91,SE,136,10.5,10.5,62,0.00,,,0.00,TxWx,2013-02-13 18:25:00,
2013-02-13 12:30:00,42.7,30.0,29.91,SSE,150,10.2,10.2,62,0.00,,,0.00,TxWx,2013-02-13 18:30:00,
2013-02-13 12:35:00,42.7,30.0,29.90,ESE,118,6.9,6.9,62,0.00,,,0.00,TxWx,2013-02-13 18:35:00,
2013-02-13 12:41:00,42.5,30.0,29.90,SE,131,13.2,13.2,62,0.00,,,0.00,TxWx,2013-02-13 18:41:00,
2013-02-13 12:46:00,43.0,30.0,29.90,SE,142,7.5,7.5,62,0.00,,,0.00,TxWx,2013-02-13 18:46:00,
2013-02-13 12:51:00,43.0,29.0,29.90,SE,146,15.9,15.9,60,0.00,,,0.00,TxWx,2013-02-13 18:51:00,
2013-02-13 12:56:00,42.7,28.0,29.90,ESE,123,6.9,7.8,58,0.00,,,0.00,TxWx,2013-02-13 18:56:00,
2013-02-13 13:01:00,42.8,28.0,29.90,SE,131,13.5,13.5,58,0.00,,,0.00,TxWx,2013-02-13 19:01:00,
2013-02-13 13:06:00,43.4,28.0,29.89,SE,141,10.2,12.9,57,0.00,,,0.00,TxWx,2013-02-13 19:06:00,
2013-02-13 13:12:00,43.8,29.0,29.89,ESE,116,10.2,10.2,58,0.00,,,0.00,TxWx,2013-02-13 19:12:00,
2013-02-13 13:17:00,44.5,30.0,29.89,ESE,118,7.5,7.5,57,0.00,,,0.00,TxWx,2013-02-13 19:17:00,
2013-02-13 13:22:00,44.1,29.0,29.89,SE,130,12.3,12.3,57,0.00,,,0.00,TxWx,2013-02-13 19:22:00,
2013-02-13 13:28:00,43.9,29.0,29.88,SE,143,13.2,14.7,57,0.00,,,0.00,TxWx,2013-02-13 19:28:00,
2013-02-13 13:33:00,43.9,29.0,29.88,SE,138,9.9,11.4,57,0.00,,,0.00,TxWx,2013-02-13 19:33:00,
2013-02-13 13:38:00,44.6,30.0,29.88,SE,136,6.6,8.7,57,0.00,,,0.00,TxWx,2013-02-13 19:38:00,
2013-02-13 13:43:00,43.9,29.0,29.88,SE,129,15.0,17.7,57,0.00,,,0.00,TxWx,2013-02-13 19:43:00,
2013-02-13 13:48:00,44.1,29.0,29.88,SE,131,21.3,22.2,57,0.00,,,0.00,TxWx,2013-02-13 19:48:00,
2013-02-13 13:54:00,44.4,29.0,29.88,ESE,121,9.3,9.3,57,0.00,,,0.00,TxWx,2013-02-13 19:54:00,
2013-02-13 13:59:00,44.3,29.0,29.88,SSE,148,13.8,13.8,57,0.00,,,0.00,TxWx,2013-02-13 19:59:00,
2013-02-13 14:04:00,44.4,29.0,29.88,SE,141,11.1,12.0,58,0.00,,,0.00,TxWx,2013-02-13 20:04:00,
2013-02-13 14:09:00,44.5,30.0,29.88,SE,137,12.3,12.3,58,0.00,,,0.00,TxWx,2013-02-13 20:09:00,
2013-02-13 14:14:00,44.5,29.0,29.88,SE,138,13.2,13.8,58,0.00,,,0.00,TxWx,2013-02-13 20:14:00,
2013-02-13 14:19:00,45.1,30.0,29.88,SE,136,9.3,10.2,58,0.00,,,0.00,TxWx,2013-02-13 20:19:00,
2013-02-13 14:24:00,44.7,30.0,29.88,ESE,123,9.9,12.3,58,0.00,,,0.00,TxWx,2013-02-13 20:24:00,
2013-02-13 14:30:00,45.5,31.0,29.88,SE,138,6.0,6.0,58,0.00,,,0.00,TxWx,2013-02-13 20:30:00,
2013-02-13 14:35:00,44.7,30.0,29.88,SE,141,8.4,8.7,58,0.00,,,0.00,TxWx,2013-02-13 20:35:00,
2013-02-13 14:40:00,45.1,31.0,29.88,SE,141,12.9,14.7,60,0.00,,,0.00,TxWx,2013-02-13 20:40:00,
2013-02-13 14:45:00,45.3,31.0,29.87,SE,141,14.4,15.3,59,0.00,,,0.00,TxWx,2013-02-13 20:45:00,
2013-02-13 14:50:00,45.4,30.0,29.88,SSE,154,13.5,13.5,59,0.00,,,0.00,TxWx,2013-02-13 20:50:00,
2013-02-13 14:56:00,45.2,30.0,29.88,SE,130,10.2,11.7,58,0.00,,,0.00,TxWx,2013-02-13 20:56:00,
2013-02-13 15:01:00,45.0,30.0,29.88,SE,137,11.1,11.1,59,0.00,,,0.00,TxWx,2013-02-13 21:01:00,
2013-02-13 15:06:00,44.8,31.0,29.88,SE,146,9.6,11.4,59,0.00,,,0.00,TxWx,2013-02-13 21:06:00,
2013-02-13 15:11:00,45.0,31.0,29.88,SE,133,9.9,10.5,59,0.00,,,0.00,TxWx,2013-02-13 21:11:00,
2013-02-13 15:17:00,45.2,31.0,29.88,SE,143,10.5,10.5,59,0.00,,,0.00,TxWx,2013-02-13 21:17:00,
2013-02-13 15:22:00,45.4,31.0,29.87,SSE,150,9.6,9.6,59,0.00,,,0.00,TxWx,2013-02-13 21:22:00,
2013-02-13 15:27:00,45.5,32.0,29.87,SE,132,8.7,8.7,59,0.00,,,0.00,TxWx,2013-02-13 21:27:00,
2013-02-13 15:32:00,45.6,32.0,29.87,ESE,117,5.1,6.3,59,0.00,,,0.00,TxWx,2013-02-13 21:32:00,
2013-02-13 15:37:00,45.2,31.0,29.87,SSE,155,5.4,5.4,59,0.00,,,0.00,TxWx,2013-02-13 21:37:00,
2013-02-13 15:43:00,45.2,31.0,29.88,SE,141,7.8,7.8,59,0.00,,,0.00,TxWx,2013-02-13 21:43:00,
2013-02-13 15:48:00,45.0,30.0,29.88,ESE,123,13.2,14.1,59,0.00,,,0.00,TxWx,2013-02-13 21:48:00,
2013-02-13 15:53:00,45.4,31.0,29.88,SE,139,5.7,6.0,59,0.00,,,0.00,TxWx,2013-02-13 21:53:00,
2013-02-13 15:58:00,45.2,31.0,29.88,SSE,148,5.4,6.6,60,0.00,,,0.00,TxWx,2013-02-13 21:58:00,
2013-02-13 16:03:00,44.8,31.0,29.88,SE,138,9.9,10.2,60,0.00,,,0.00,TxWx,2013-02-13 22:03:00,
2013-02-13 16:08:00,44.7,31.0,29.88,SE,146,10.2,10.2,59,0.00,,,0.00,TxWx,2013-02-13 22:08:00,
2013-02-13 16:13:00,44.9,31.0,29.88,SSE,148,9.3,9.3,60,0.00,,,0.00,TxWx,2013-02-13 22:13:00,
2013-02-13 16:19:00,44.7,31.0,29.88,SSE,148,8.7,8.7,60,0.00,,,0.00,TxWx,2013-02-13 22:19:00,
2013-02-13 16:24:00,44.5,31.0,29.88,SSE,148,6.3,7.2,59,0.00,,,0.00,TxWx,2013-02-13 22:24:00,
2013-02-13 16:29:00,44.3,30.0,29.88,SSE,150,5.1,5.7,60,0.00,,,0.00,TxWx,2013-02-13 22:29:00,
2013-02-13 16:34:00,44.2,30.0,29.88,SSE,149,11.7,12.0,60,0.00,,,0.00,TxWx,2013-02-13 22:34:00,
2013-02-13 16:40:00,44.1,30.0,29.88,SE,145,4.8,4.8,60,0.00,,,0.00,TxWx,2013-02-13 22:40:00,
2013-02-13 16:45:00,43.8,30.0,29.89,SE,143,4.5,5.7,61,0.00,,,0.00,TxWx,2013-02-13 22:45:00,
2013-02-13 16:50:00,43.5,30.0,29.89,SE,140,4.5,4.8,61,0.00,,,0.00,TxWx,2013-02-13 22:50:00,
2013-02-13 16:56:00,43.3,30.0,29.89,SE,137,5.4,5.4,62,0.00,,,0.00,TxWx,2013-02-13 22:56:00,
2013-02-13 17:01:00,43.0,30.0,29.89,SE,144,6.6,6.6,63,0.00,,,0.00,TxWx,2013-02-13 23:01:00,
2013-02-13 17:06:00,43.0,30.0,29.89,SE,142,6.0,6.0,63,0.00,,,0.00,TxWx,2013-02-13 23:06:00,
2013-02-13 17:11:00,42.7,30.0,29.90,SSE,166,3.9,4.5,63,0.00,,,0.00,TxWx,2013-02-13 23:11:00,
2013-02-13 17:17:00,42.5,29.0,29.90,South,184,1.8,1.8,64,0.00,,,0.00,TxWx,2013-02-13 23:17:00,
2013-02-13 17:22:00,42.2,29.0,29.90,SSE,154,6.6,7.8,64,0.00,,,0.00,TxWx,2013-02-13 23:22:00,
2013-02-13 17:27:00,42.1,29.0,29.90,SSE,149,3.9,4.8,64,0.00,,,0.00,TxWx,2013-02-13 23:27:00,
2013-02-13 17:33:00,41.9,30.0,29.90,SE,130,3.3,3.9,64,0.00,,,0.00,TxWx,2013-02-13 23:33:00,
2013-02-13 17:38:00,41.6,30.0,29.90,SE,140,4.5,4.5,64,0.00,,,0.00,TxWx,2013-02-13 23:38:00,
2013-02-13 17:43:00,41.4,29.0,29.91,SSE,154,2.7,2.7,65,0.00,,,0.00,TxWx,2013-02-13 23:43:00,
2013-02-13 17:48:00,41.4,29.0,29.91,SE,146,4.5,4.8,65,0.00,,,0.00,TxWx,2013-02-13 23:48:00,
2013-02-13 17:54:00,41.2,29.0,29.91,SE,125,3.9,4.2,66,0.00,,,0.00,TxWx,2013-02-13 23:54:00,
2013-02-13 17:59:00,41.0,30.0,29.90,SE,130,4.8,4.8,66,0.00,,,0.00,TxWx,2013-02-13 23:59:00,
2013-02-13 18:04:00,40.8,30.0,29.91,SE,129,4.5,4.8,67,0.00,,,0.00,TxWx,2013-02-14 00:04:00,
2013-02-13 18:09:00,40.6,30.0,29.91,SE,136,2.7,3.6,67,0.00,,,0.00,TxWx,2013-02-14 00:09:00,
2013-02-13 18:14:00,40.4,29.0,29.91,SE,132,2.1,2.4,67,0.00,,,0.00,TxWx,2013-02-14 00:14:00,
2013-02-13 18:19:00,40.2,29.0,29.91,SE,129,3.0,3.3,68,0.00,,,0.00,TxWx,2013-02-14 00:19:00,
2013-02-13 18:25:00,40.0,29.0,29.91,SSE,151,6.3,6.3,68,0.00,,,0.00,TxWx,2013-02-14 00:25:00,
2013-02-13 18:30:00,40.0,29.0,29.91,ESE,123,3.3,3.9,69,0.00,,,0.00,TxWx,2013-02-14 00:30:00,
2013-02-13 18:35:00,39.9,29.0,29.91,SSE,147,3.3,3.3,69,0.00,,,0.00,TxWx,2013-02-14 00:35:00,
2013-02-13 18:40:00,39.8,29.0,29.91,SE,141,4.2,4.2,69,0.00,,,0.00,TxWx,2013-02-14 00:40:00,
2013-02-13 18:45:00,39.7,30.0,29.91,SE,136,6.6,7.2,69,0.00,,,0.00,TxWx,2013-02-14 00:45:00,
2013-02-13 18:50:00,39.6,30.0,29.91,SE,139,4.8,4.8,69,0.00,,,0.00,TxWx,2013-02-14 00:50:00,
2013-02-13 18:56:00,39.4,29.0,29.91,SE,134,4.5,5.4,69,0.00,,,0.00,TxWx,2013-02-14 00:56:00,
2013-02-13 19:01:00,39.2,29.0,29.92,SE,136,4.2,4.2,69,0.00,,,0.00,TxWx,2013-02-14 01:01:00,
2013-02-13 19:06:00,39.0,29.0,29.92,SE,135,3.0,3.0,70,0.00,,,0.00,TxWx,2013-02-14 01:06:00,
2013-02-13 19:11:00,38.8,29.0,29.92,SE,135,2.4,2.4,70,0.00,,,0.00,TxWx,2013-02-14 01:11:00,
2013-02-13 19:16:00,38.6,29.0,29.92,SE,136,3.9,3.9,70,0.00,,,0.00,TxWx,2013-02-14 01:16:00,
2013-02-13 19:21:00,38.5,28.0,29.92,SE,136,5.1,5.4,71,0.00,,,0.00,TxWx,2013-02-14 01:21:00,
2013-02-13 19:27:00,38.4,28.0,29.92,SSE,159,2.4,2.7,71,0.00,,,0.00,TxWx,2013-02-14 01:27:00,
2013-02-13 19:32:00,38.3,28.0,29.92,SE,141,3.0,3.0,71,0.00,,,0.00,TxWx,2013-02-14 01:32:00,
2013-02-13 19:37:00,38.1,29.0,29.92,SSE,158,3.6,3.6,72,0.00,,,0.00,TxWx,2013-02-14 01:37:00,
2013-02-13 19:42:00,37.9,29.0,29.92,SE,135,4.2,4.2,72,0.00,,,0.00,TxWx,2013-02-14 01:42:00,
2013-02-13 19:48:00,37.8,29.0,29.92,SE,132,2.7,2.7,73,0.00,,,0.00,TxWx,2013-02-14 01:48:00,
2013-02-13 19:53:00,37.6,29.0,29.92,SE,134,2.7,2.7,73,0.00,,,0.00,TxWx,2013-02-14 01:53:00,
2013-02-13 19:58:00,37.5,29.0,29.92,SE,130,2.4,2.4,73,0.00,,,0.00,TxWx,2013-02-14 01:58:00,
2013-02-13 20:04:00,37.5,29.0,29.92,SE,133,1.2,1.2,74,0.00,,,0.00,TxWx,2013-02-14 02:04:00,
2013-02-13 20:09:00,37.5,28.0,29.92,SE,142,5.4,5.4,74,0.00,,,0.00,TxWx,2013-02-14 02:09:00,
2013-02-13 20:14:00,37.4,29.0,29.92,SE,126,1.8,2.1,75,0.00,,,0.00,TxWx,2013-02-14 02:14:00,
2013-02-13 20:19:00,37.3,29.0,29.92,SE,128,3.0,3.3,75,0.00,,,0.00,TxWx,2013-02-14 02:19:00,
2013-02-13 20:24:00,37.1,29.0,29.92,SE,125,2.4,2.4,75,0.00,,,0.00,TxWx,2013-02-14 02:24:00,
2013-02-13 20:29:00,37.1,29.0,29.92,SE,137,2.4,2.4,75,0.00,,,0.00,TxWx,2013-02-14 02:29:00,
2013-02-13 20:34:00,37.0,29.0,29.92,SE,143,1.5,1.5,76,0.00,,,0.00,TxWx,2013-02-14 02:34:00,
2013-02-13 20:40:00,37.0,29.0,29.92,SE,142,3.3,3.3,76,0.00,,,0.00,TxWx,2013-02-14 02:40:00,
2013-02-13 20:45:00,36.8,29.0,29.92,SE,131,2.7,2.7,76,0.00,,,0.00,TxWx,2013-02-14 02:45:00,
2013-02-13 20:50:00,36.5,29.0,29.92,SE,131,3.9,3.9,76,0.00,,,0.00,TxWx,2013-02-14 02:50:00,
2013-02-13 20:55:00,36.3,28.0,29.92,ESE,118,2.1,2.1,77,0.00,,,0.00,TxWx,2013-02-14 02:55:00,
2013-02-13 21:00:00,36.3,28.0,29.92,SE,140,3.9,3.9,77,0.00,,,0.00,TxWx,2013-02-14 03:00:00,
2013-02-13 21:05:00,36.4,29.0,29.92,SE,125,3.0,3.6,78,0.00,,,0.00,TxWx,2013-02-14 03:05:00,
2013-02-13 21:11:00,36.2,29.0,29.92,SE,124,3.9,3.9,78,0.00,,,0.00,TxWx,2013-02-14 03:11:00,
2013-02-13 21:16:00,36.2,29.0,29.92,SE,130,3.0,3.0,78,0.00,,,0.00,TxWx,2013-02-14 03:16:00,
2013-02-13 21:21:00,36.3,29.0,29.92,SE,133,2.4,3.0,79,0.00,,,0.00,TxWx,2013-02-14 03:21:00,
2013-02-13 21:26:00,36.5,30.0,29.92,SE,133,4.8,4.8,79,0.00,,,0.00,TxWx,2013-02-14 03:26:00,
2013-02-13 21:31:00,36.6,30.0,29.91,SE,128,3.3,3.6,79,0.00,,,0.00,TxWx,2013-02-14 03:31:00,
2013-02-13 21:36:00,36.6,30.0,29.92,SE,130,3.6,3.6,79,0.00,,,0.00,TxWx,2013-02-14 03:36:00,
2013-02-13 21:42:00,36.6,30.0,29.92,SE,125,2.1,2.1,79,0.00,,,0.00,TxWx,2013-02-14 03:42:00,
2013-02-13 21:47:00,36.7,30.0,29.92,SE,129,4.2,4.5,79,0.00,,,0.00,TxWx,2013-02-14 03:47:00,
2013-02-13 21:52:00,36.6,30.0,29.92,SE,133,3.0,3.0,79,0.00,,,0.00,TxWx,2013-02-14 03:52:00,
2013-02-13 21:57:00,36.7,30.0,29.92,SE,135,3.3,3.6,80,0.00,,,0.00,TxWx,2013-02-14 03:57:00,
2013-02-13 22:03:00,36.7,30.0,29.92,SE,130,5.4,5.7,80,0.00,,,0.00,TxWx,2013-02-14 04:03:00,
2013-02-13 22:08:00,36.6,30.0,29.92,SE,128,4.8,4.8,80,0.00,,,0.00,TxWx,2013-02-14 04:08:00,
2013-02-13 22:13:00,36.6,30.0,29.92,ESE,117,2.7,2.7,80,0.00,,,0.00,TxWx,2013-02-14 04:13:00,
2013-02-13 22:18:00,36.7,30.0,29.92,ESE,118,3.9,3.9,80,0.00,,,0.00,TxWx,2013-02-14 04:18:00,
2013-02-13 22:23:00,36.7,30.0,29.92,SE,124,6.0,6.3,80,0.00,,,0.00,TxWx,2013-02-14 04:23:00,
2013-02-13 22:28:00,36.6,30.0,29.92,ESE,118,3.3,3.3,80,0.00,,,0.00,TxWx,2013-02-14 04:28:00,
2013-02-13 22:33:00,36.5,29.0,29.92,ESE,121,5.4,5.4,80,0.00,,,0.00,TxWx,2013-02-14 04:33:00,
2013-02-13 22:38:00,36.6,31.0,29.92,SE,125,7.2,7.2,81,0.00,,,0.00,TxWx,2013-02-14 04:38:00,
2013-02-13 22:44:00,36.5,31.0,29.92,SE,124,4.8,5.7,81,0.00,,,0.00,TxWx,2013-02-14 04:44:00,
2013-02-13 22:49:00,36.5,31.0,29.92,ESE,120,6.3,6.3,81,0.00,,,0.00,TxWx,2013-02-14 04:49:00,
2013-02-13 22:54:00,36.5,31.0,29.92,SE,126,3.6,3.6,81,0.00,,,0.00,TxWx,2013-02-14 04:54:00,
2013-02-13 22:59:00,36.5,31.0,29.92,ESE,116,4.2,4.5,81,0.00,,,0.00,TxWx,2013-02-14 04:59:00,
2013-02-13 23:00:00,36.5,30.0,29.92,SE,126,4.8,4.8,81,0.00,,,0.00,TxWx,2013-02-14 05:00:00,
2013-02-13 23:01:00,36.4,30.0,29.92,SE,125,8.7,9.0,81,0.00,,,0.00,TxWx,2013-02-14 05:01:00,
2013-02-13 23:06:00,36.5,30.0,29.92,ESE,121,4.2,4.2,81,0.00,,,0.00,TxWx,2013-02-14 05:06:00,
2013-02-13 23:11:00,36.5,31.0,29.91,SE,124,6.0,6.0,82,0.00,,,0.00,TxWx,2013-02-14 05:11:00,
2013-02-13 23:17:00,36.6,31.0,29.91,ESE,122,3.9,3.9,82,0.00,,,0.00,TxWx,2013-02-14 05:17:00,
2013-02-13 23:22:00,36.5,30.0,29.91,SE,125,5.4,5.4,82,0.00,,,0.00,TxWx,2013-02-14 05:22:00,
2013-02-13 23:27:00,36.5,31.0,29.92,SE,127,6.0,6.0,82,0.00,,,0.00,TxWx,2013-02-14 05:27:00,
2013-02-13 23:32:00,36.5,31.0,29.92,SE,125,4.2,4.2,82,0.00,,,0.00,TxWx,2013-02-14 05:32:00,
2013-02-13 23:37:00,36.4,30.0,29.91,SE,126,7.8,8.4,82,0.00,,,0.00,TxWx,2013-02-14 05:37:00,
2013-02-13 23:43:00,36.4,30.0,29.91,ESE,122,10.2,10.5,82,0.00,,,0.00,TxWx,2013-02-14 05:43:00,
2013-02-13 23:48:00,36.5,30.0,29.91,ESE,114,5.7,6.3,82,0.00,,,0.00,TxWx,2013-02-14 05:48:00,
2013-02-13 23:53:00,36.5,32.0,29.91,ESE,121,5.7,6.0,82,0.00,,,0.00,TxWx,2013-02-14 05:53:00,
2013-02-13 23:58:00,36.6,32.0,29.92,SE,136,8.4,8.4,82,0.00,,,0.00,TxWx,2013-02-14 05:58:00,